This is the latest recevied weather packets stored in our database for station/object SP9KB-13. If no packets are shown the sender has not sent any weather packets the latest 10 day(s).
| Time | Temp. | Humidity | Pressure | Rain* | Wind** | Luminosity | Snow |
|---|---|---|---|---|---|---|---|
| 1777763649 | 0.56° C | 96% | 1003.5 hPa | 0 mm | - | - | - |
| 1777763348 | 1.11° C | 96% | 1003.2 hPa | 0 mm | - | - | - |
| 1777763048 | 1.11° C | 96% | 1003.3 hPa | 0 mm | - | - | - |
| 1777762747 | 1.11° C | 96% | 1003.5 hPa | 0 mm | - | - | - |
| 1777762447 | 1.11° C | 95% | 1003.6 hPa | 0 mm | - | - | - |
| 1777762146 | 1.11° C | 96% | 1003.6 hPa | 0 mm | - | - | - |
| 1777761846 | 1.67° C | 95% | 1003.4 hPa | 0 mm | - | - | - |
| 1777761545 | 1.67° C | 95% | 1003.5 hPa | 0 mm | - | - | - |
| 1777761245 | 1.67° C | 95% | 1003.6 hPa | 0 mm | - | - | - |
| 1777760944 | 1.67° C | 95% | 1003.6 hPa | 0 mm | - | - | - |
| 1777760644 | 1.11° C | 94% | 1003.6 hPa | 0 mm | - | - | - |
| 1777760343 | 1.67° C | 94% | 1003.6 hPa | 0 mm | - | - | - |
| 1777760042 | 1.67° C | 94% | 1003.6 hPa | 0 mm | - | - | - |
| 1777759742 | 2.22° C | 93% | 1003.7 hPa | 0 mm | - | - | - |
| 1777759442 | 2.22° C | 93% | 1003.8 hPa | 0 mm | - | - | - |
| 1777759141 | 2.22° C | 93% | 1003.9 hPa | 0 mm | - | - | - |
| 1777758840 | 2.22° C | 93% | 1003.7 hPa | 0 mm | - | - | - |
| 1777758540 | 2.22° C | 93% | 1003.9 hPa | 0 mm | - | - | - |
| 1777758239 | 2.22° C | 93% | 1003.9 hPa | 0 mm | - | - | - |
| 1777757939 | 2.22° C | 93% | 1003.8 hPa | 0 mm | - | - | - |
| 1777757638 | 2.22° C | 92% | 1003.8 hPa | 0 mm | - | - | - |
| 1777757338 | 2.78° C | 92% | 1003.9 hPa | 0 mm | - | - | - |
| 1777757037 | 2.78° C | 92% | 1003.7 hPa | 0 mm | - | - | - |
| 1777756737 | 2.78° C | 90% | 1003.7 hPa | 0 mm | - | - | - |
| 1777756436 | 3.33° C | 91% | 1003.7 hPa | 0 mm | - | - | - |
* Rain latest hour (hover to see other rain measurements)
** Current wind speed in m/s (hover to see current wind gust speed)